[[[{"header":{"parameterUnit":"kt","parameterCategory":2,"dx":1,"dy":1,"la1":30.253999710083008,"la2":30.299108505249023,"lo1":-89.0895004272461,"lo2":-89.04439544677734,"nx":28,"ny":28,"refTime":"2022-09-20T09:00:00:Z","depth":0,"parameterNumber":1,"parameterNumberName":"U-component_of_WINDS"},"data":[-3.5755,-3.5672,-3.5548,-3.5394,-3.5257,-3.5129,-3.5043,-3.4919,-3.4788,-3.4619,-3.4499,-3.4363,-3.418,-3.4004,-3.3865,-3.3807,-3.3756,-3.3817,-3.3738,-3.358,-3.355,-3.3521,-3.3533,-3.3809,-3.3809,-3.3917,-3.3918,-3.3919,-3.565,-3.5515,-3.5398,-3.52,-3.5098,-3.4964,-3.4795,-3.4718,-3.4606,-3.4444,-3.4319,-3.4159,-3.4015,-3.3806,-3.3645,-3.36,-3.3525,-3.3565,-3.3565,-3.3537,-3.3365,-3.338,-3.3627,-3.3627,-3.3627,-3.3627,-3.3627,-3.3627,-3.5426,-3.5381,-3.5189,-3.5059,-3.4925,-3.4793,-3.4727,-3.4562,-3.4444,-3.4264,-3.4136,-3.4006,-3.3817,-3.3561,-3.3443,-3.3335,-3.3268,-3.3271,-3.327,-3.3274,-3.3295,-3.3153,-3.3302,-3.3301,-3.33,-3.3299,-3.3298,0,-3.5222,-3.5121,-3.5,-3.4842,-3.4741,-3.4605,-3.446,-3.4415,-3.4155,-3.4068,-3.393,-3.3829,-3.3629,-3.3483,-3.3304,-3.3177,-3.3026,-3.2997,-3.2997,-3.3057,-3.3133,-3.3089,-3.2813,-3.2993,-3.299,-3.2987,-3.2986,-3.2984,-3.4984,-3.4947,-3.4684,-3.4616,-3.4505,-3.4398,-3.4308,-3.4081,-3.3995,-3.378,-3.3749,-3.3601,-3.347,-3.3269,-3.3071,-3.292,-3.2843,-3.2926,-3.2819,-3.2879,-3.2841,-3.2845,-3.2838,-3.2951,-3.2955,-3.2959,-3.2962,0,-3.4861,-3.4657,-3.4558,-3.43,-3.4234,-3.4206,-3.3983,-3.3927,-3.3771,-3.3671,-3.3635,-3.3389,-3.3256,-3.3043,-3.2848,-3.274,-3.2685,-3.2616,-3.2748,-3.2722,-3.2773,-3.277,-3.2976,-3.299,-3.2704,-3.2707,-3.271,0,-3.4577,-3.4537,-3.4232,-3.4186,-3.4132,-3.3904,-3.3856,-3.3716,-3.355,-3.3469,-3.3264,-3.3193,-3.293,-3.2827,-3.2668,-3.2585,-3.2549,-3.246,-3.2418,-3.2477,-3.2489,-3.2425,-3.2411,-3.2327,-3.2326,-3.2325,-3.2325,0,-3.4406,-3.4195,-3.4118,-3.4037,-3.3756,-3.3725,-3.3606,-3.3417,-3.3331,-3.3183,-3.3123,-3.2968,-3.2883,-3.2765,-3.2562,-3.2498,-3.2456,-3.2325,-3.2365,-3.237,-3.2365,-3.2368,-3.2606,-3.2324,-3.2323,-3.2323,-3.2323,0,-3.4143,-3.4001,-3.3922,-3.3682,-3.3635,-3.3585,-3.3417,-3.3324,-3.3139,-3.3035,-3.2917,-3.2753,-3.2665,-3.255,-3.2423,-3.2397,-3.2323,-3.223,-3.2229,-3.2206,-3.2083,-3.2243,-3.2494,-3.2511,-3.2188,-3.2187,-3.2186,0,-3.4002,-3.3867,-3.3669,-3.3598,-3.3505,-3.3279,-3.3217,-3.3061,-3.2917,-3.2815,-3.2655,-3.2541,-3.241,-3.2344,-3.231,-3.2139,-3.2174,-3.2128,-3.198,-3.1977,-3.2034,-3.2263,-3.2353,-3.2464,-3.2168,-3.217,-3.2171,0,-3.3866,-3.3526,-3.3528,-3.3423,-3.318,-3.3101,-3.3032,-3.2868,-3.2812,-3.2658,-3.2591,-3.2426,-3.2319,-3.2213,-3.2063,-3.2039,-3.2143,-3.1927,-3.1918,-3.1971,-3.2142,-3.2228,-3.2247,-3.2047,-3.2049,-3.205,-3.2158,0,-3.3513,-3.3418,-3.3413,-3.3193,-3.3099,-3.3043,-3.2816,-3.2746,-3.261,-3.2459,-3.2359,-3.2172,-3.2004,-3.197,-3.1837,-3.1851,-3.1814,-3.1702,-3.1572,-3.1725,-3.1754,-3.1767,-3.1547,-3.1541,-3.1537,-3.1534,0,0,-3.3428,-3.3287,-3.3071,-3.2996,-3.2902,-3.2667,-3.2627,-3.2508,-3.2274,-3.2214,-3.214,-3.1881,-3.1733,-3.1634,-3.1664,-3.1597,-3.1577,-3.1532,-3.1655,-3.1669,-3.1682,-3.1718,-3.1734,-3.1526,-3.1524,-3.1523,-3.1521,0,-3.3251,-3.3108,-3.3072,-3.2939,-3.2736,-3.2577,-3.2569,-3.2324,-3.2225,-3.2126,-3.1931,-3.1843,-3.1643,-3.151,-3.1416,-3.1539,-3.1395,-3.1506,-3.1647,-3.1619,-3.164,-3.1657,-3.1697,-3.1715,-3.1511,-3.1511,-3.1512,0,-3.3075,-3.2896,-3.2855,-3.2632,-3.2496,-3.2406,-3.2215,-3.213,-3.2059,-3.1803,-3.1708,-3.1574,-3.1377,-3.1314,-3.1278,-3.1209,-3.1243,-3.1192,-3.1213,-3.1203,-3.1164,-3.1189,-3.1211,-3.092,-3.0919,-3.0918,0,0,-3.2953,-3.2864,-3.2599,-3.2577,-3.2505,-3.2269,-3.2198,-3.2055,-3.1884,-3.1817,-3.1641,-3.148,-3.1359,-3.1286,-3.1161,-3.1126,-3.1064,-3.1129,-3.1157,-3.118,-3.1184,-3.1152,-3.1176,-3.0914,-3.0914,-3.0914,0,0,-3.2893,-3.2586,-3.248,-3.2426,-3.2272,-3.2008,-3.2002,-3.1865,-3.173,-3.171,-3.1462,-3.1409,-3.1346,-3.1221,-3.1192,-3.111,-3.0987,-3.0989,-3.1194,-3.1226,-3.1253,-3.1283,-3.0967,0,0,0,0,0,-3.2595,-3.2624,-3.2531,-3.2488,-3.2205,-3.2061,-3.2022,-3.1819,-3.1736,-3.1736,-3.1566,-3.1417,-3.1153,-3.1122,-3.1082,-3.1116,-3.086,-3.0869,-3.0878,-3.1133,-3.1169,-3.1199,0,0,0,0,0,0,-3.2576,-3.2525,-3.2529,-3.2271,-3.2205,-3.2058,-3.1871,-3.1816,-3.1731,-3.1704,-3.1455,-3.1409,-3.1232,-3.1128,-3.1095,-3.1132,-3.0978,-3.0863,-3.0872,-3.0879,-3.1145,-3.1174,-3.12,0,0,0,0,0,-3.2561,-3.2519,-3.2119,-3.2268,-3.2211,-3.1948,-3.1869,-3.1821,-3.1751,-3.1488,-3.1438,-3.1606,-3.1239,-3.1196,-3.1107,-3.1152,-3.0999,-3.0987,-3.0869,-3.0875,-3.0881,-3.1159,0,0,0,0,0,0,-3.2549,-3.2473,-3.2102,-3.2077,-3.2242,-3.1952,-3.19,-3.1827,-3.1536,-3.1487,-3.1627,-3.1609,-3.1244,-3.121,-3.1179,-3.1171,-3.1016,-3.1005,-3.0997,-3.0874,-3.0879,-3.0883,0,0,0,0,0,0,-3.2494,-3.2454,-3.2089,-3.2068,-3.2038,-3.1957,-3.1911,-3.1805,-3.1535,-3.169,-3.1666,-3.1622,-3.1289,-3.122,-3.1195,-3.1038,-3.103,-3.1018,-3.1011,-3.1006,-3.0878,-3.0882,0,0,0,0,0,0,-3.2474,-3.2439,-3.2073,-3.205,-3.2024,-3.1727,-3.1859,-3.158,-3.152,-3.1706,-3.1509,-3.1504,-3.1304,-3.1274,-3.1207,-3.1062,-3.1044,-3.1029,-3.1022,-3.1016,-3.1013,0,0,0,0,0,0,0,-3.2457,-3.2739,-3.2252,-3.2036,-3.2013,-3.1845,-3.1838,-3.1831,-3.1519,-3.1515,-3.151,-3.1506,-3.1094,-3.1081,-3.1069,-3.1082,0,0,-3.103,-3.1025,0,0,0,0,0,0,0,0,-3.2749,-3.2742,-3.2251,-3.2246,-3.2241,-3.1844,-3.1839,-3.1833,-3.1518,-3.1515,-3.1511,-3.1508,-3.109,-3.108,-3.107,0,0,0,0,0,0,0,0,0,0,0,0,0,0,0,-3.225,-3.2246,0,-3.1843,-3.1839,-3.1834,-3.1518,-3.1515,-3.1512,-3.1509,-3.1088,-3.1079,-3.1071,0,0,0,0,0,0,0,0,0,0,0,0,0,0,0,0,0,0,0,0,0,0,0,0,0,0,0,0,0,0,0,0,0,0,0,0,0,0,0,0,0,0,0,0,0,0,0,0,0,0,0,0,0,0,0,0,0,0,0,0,0,0,0,0,0,0,0,0,0]}],[{"header":{"parameterUnit":"kt","parameterCategory":2,"dx":1,"dy":1,"la1":30.253999710083008,"la2":30.299108505249023,"lo1":-89.0895004272461,"lo2":-89.04439544677734,"nx":28,"ny":28,"refTime":"2022-09-20T09:00:00:Z","depth":0,"parameterNumber":2,"parameterNumberName":"V-component_of_WINDS"},"data":[0.4509,0.444,0.44,0.43,0.4248,0.4171,0.413,0.4072,0.4016,0.3915,0.3849,0.3799,0.3723,0.363,0.3553,0.3532,0.35,0.3503,0.3476,0.3506,0.3507,0.3508,0.3523,0.3498,0.3498,0.345,0.345,0.3449,0.4526,0.4475,0.4412,0.4325,0.4269,0.4242,0.4169,0.4122,0.4053,0.3983,0.3918,0.3825,0.3745,0.3666,0.3581,0.3541,0.3521,0.352,0.3521,0.3508,0.3539,0.3555,0.3537,0.3537,0.3537,0.3537,0.3537,0.3537,0.4546,0.4507,0.4433,0.4364,0.4309,0.425,0.4203,0.4146,0.4081,0.3993,0.3958,0.3877,0.3797,0.3675,0.3623,0.3555,0.3548,0.3533,0.3529,0.3525,0.3525,0.3591,0.3539,0.3539,0.3539,0.3539,0.3539,0,0.4548,0.4519,0.4458,0.4384,0.4332,0.4271,0.4207,0.4178,0.41,0.4049,0.3972,0.392,0.3816,0.3735,0.3647,0.3596,0.3559,0.3552,0.354,0.3555,0.3578,0.356,0.3608,0.3554,0.3554,0.3553,0.3553,0.3553,0.4562,0.4523,0.4428,0.439,0.4347,0.4286,0.4241,0.4177,0.4131,0.4041,0.4007,0.3928,0.3861,0.374,0.3669,0.359,0.357,0.3553,0.3558,0.3573,0.3564,0.3566,0.3559,0.3553,0.3553,0.3553,0.3553,0,0.4573,0.4513,0.4439,0.4349,0.4325,0.4285,0.4205,0.4162,0.4112,0.4044,0.4024,0.3943,0.3867,0.3799,0.3698,0.3664,0.3586,0.3572,0.3612,0.3604,0.3578,0.358,0.3516,0.3501,0.3531,0.3531,0.3531,0,0.456,0.4511,0.4423,0.4384,0.4325,0.4263,0.4205,0.4157,0.4091,0.4038,0.3989,0.3939,0.3861,0.3799,0.3749,0.3674,0.3657,0.3625,0.3611,0.3627,0.3631,0.3598,0.3598,0.3589,0.3589,0.359,0.359,0,0.4581,0.4479,0.4416,0.4382,0.4282,0.4252,0.4208,0.4135,0.4092,0.4024,0.3994,0.3919,0.3877,0.3817,0.3755,0.376,0.3663,0.3658,0.363,0.3631,0.3611,0.3612,0.3575,0.3591,0.3591,0.3591,0.3591,0,0.4561,0.45,0.442,0.4334,0.4309,0.4267,0.4191,0.4141,0.4067,0.4034,0.398,0.394,0.3874,0.3872,0.3777,0.3801,0.3761,0.3725,0.3722,0.3709,0.3709,0.3692,0.3667,0.3659,0.3699,0.37,0.3701,0,0.46,0.4504,0.4452,0.4376,0.4322,0.4272,0.4223,0.4162,0.4115,0.4059,0.4006,0.3942,0.3928,0.3898,0.3861,0.3801,0.377,0.3804,0.3715,0.3712,0.3733,0.371,0.3722,0.3681,0.3712,0.3711,0.371,0,0.4623,0.4507,0.4497,0.4456,0.4369,0.4324,0.427,0.4196,0.4161,0.4099,0.4048,0.3959,0.3943,0.3896,0.3856,0.382,0.3789,0.3807,0.3804,0.3802,0.3714,0.3724,0.3718,0.3769,0.3767,0.3766,0.3719,0,0.4599,0.4546,0.4519,0.4435,0.4391,0.4342,0.4277,0.4238,0.4205,0.4158,0.4084,0.4017,0.3939,0.3916,0.3884,0.3825,0.3824,0.3808,0.38,0.3787,0.3769,0.3762,0.3831,0.3831,0.383,0.383,0,0,0.4649,0.4572,0.452,0.4468,0.4427,0.4378,0.4331,0.4285,0.4195,0.4165,0.4161,0.4027,0.3973,0.3889,0.388,0.3851,0.3832,0.3841,0.3794,0.3791,0.3787,0.377,0.3764,0.3829,0.3829,0.3828,0.3828,0,0.4628,0.4582,0.4539,0.449,0.4417,0.4371,0.436,0.4278,0.4246,0.4177,0.4134,0.4082,0.398,0.3925,0.3885,0.385,0.3818,0.3831,0.3833,0.3792,0.3789,0.3786,0.3769,0.3764,0.3827,0.3827,0.3827,0,0.4636,0.4579,0.4553,0.4464,0.4415,0.4362,0.4339,0.4286,0.4245,0.4192,0.4124,0.4077,0.4001,0.3934,0.3901,0.3896,0.3809,0.3827,0.3828,0.3822,0.3778,0.3775,0.3772,0.3811,0.3811,0.3811,0,0,0.4626,0.4579,0.4497,0.4454,0.4427,0.4359,0.4325,0.429,0.4226,0.4201,0.4142,0.4078,0.4016,0.3977,0.3917,0.3853,0.3829,0.3828,0.3829,0.383,0.3824,0.3781,0.3777,0.3812,0.3812,0.3812,0,0,0.462,0.4526,0.4506,0.4449,0.4392,0.4306,0.4281,0.4252,0.4193,0.4191,0.4125,0.4106,0.4042,0.3998,0.4017,0.3912,0.3905,0.3899,0.3943,0.3943,0.3943,0.3954,0.3982,0,0,0,0,0,0.4567,0.4538,0.452,0.4502,0.4389,0.4317,0.4301,0.4249,0.4245,0.4225,0.4171,0.4142,0.3994,0.4009,0.399,0.3969,0.3823,0.3821,0.3819,0.3859,0.386,0.3861,0,0,0,0,0,0,0.4559,0.4537,0.4521,0.4437,0.4411,0.4317,0.4299,0.4283,0.4246,0.4242,0.4154,0.4139,0.4091,0.4016,0.3999,0.398,0.3987,0.3822,0.382,0.3819,0.386,0.386,0.3861,0,0,0,0,0,0.4553,0.4535,0.437,0.4436,0.4414,0.4337,0.43,0.4287,0.4256,0.4173,0.4158,0.422,0.4092,0.4074,0.4005,0.3989,0.3999,0.3993,0.3821,0.382,0.3819,0.386,0,0,0,0,0,0,0.4548,0.4521,0.4364,0.4355,0.4445,0.4341,0.4323,0.429,0.4189,0.4174,0.4237,0.4234,0.4092,0.4078,0.4064,0.3995,0.4008,0.4002,0.3998,0.382,0.3819,0.3818,0,0,0,0,0,0,0.453,0.4514,0.4359,0.4373,0.4365,0.4345,0.4329,0.4264,0.4188,0.4258,0.4253,0.4237,0.4111,0.4081,0.407,0.397,0.4015,0.4009,0.4005,0.4002,0.3819,0.3818,0,0,0,0,0,0,0.4522,0.4508,0.4375,0.4369,0.4362,0.4256,0.4286,0.4172,0.4204,0.4263,0.4205,0.4206,0.4115,0.4103,0.4074,0.3979,0.3972,0.4015,0.4011,0.4008,0.4006,0,0,0,0,0,0,0,0.4516,0.4625,0.4418,0.4365,0.4359,0.4272,0.4269,0.4267,0.4204,0.4205,0.4205,0.4205,0.4049,0.4043,0.4036,0.3987,0,0,0.4016,0.4013,0,0,0,0,0,0,0,0,0.463,0.4626,0.4417,0.4415,0.4414,0.4271,0.4269,0.4267,0.4204,0.4205,0.4205,0.4205,0.4047,0.4042,0.4037,0,0,0,0,0,0,0,0,0,0,0,0,0,0,0,0.4417,0.4416,0,0.4271,0.4269,0.4267,0.4204,0.4205,0.4205,0.4205,0.4046,0.4042,0.4037,0,0,0,0,0,0,0,0,0,0,0,0,0,0,0,0,0,0,0,0,0,0,0,0,0,0,0,0,0,0,0,0,0,0,0,0,0,0,0,0,0,0,0,0,0,0,0,0,0,0,0,0,0,0,0,0,0,0,0,0,0,0,0,0,0,0,0,0,0]}]]]